IRIDIUM 75 [-]

Last updated on Wed Jul 11 2018 00:20:27 GMT+0000 (Coordinated Universal Time)

1 25346U 98032E 18191.28036638 .20260072 -15268-5 23940-3 0 9996 2 25346 86.5326 60.0640 0048405 92.1908 268.7467 16.44512353 55608

Satellite not in orbit